Location: Unspecified
(43.8044°N, 11.0278°E)
Time: 13:48:26
(UTC+02:00)

Cosmos 1674 - Visible Passes

Search period start: 19 September 2014 00:00
Search period end: 29 September 2014 00:00
Orbit: 514 x 542 km, 82.5° (Epoch: 18 September)

Date Brightness Start Highest point End Pass type
(mag) Time Alt. Az. Time Alt. Az. Time Alt. Az.
19 Sep 4.6 21:28:19 10° N 21:29:55 21° NNE 21:29:55 21° NNE visible
19 Sep 6.1 23:05:09 10° NW 23:05:12 10° NW 23:05:12 10° NW visible
20 Sep 4.4 21:17:20 10° N 21:19:08 22° NNE 21:19:08 22° NNE visible
20 Sep 6.0 22:53:58 10° NW 22:54:25 12° NW 22:54:25 12° NW visible
21 Sep 4.3 21:06:20 10° NNE 21:08:22 24° NE 21:08:22 24° NE visible
21 Sep 5.8 22:42:48 10° NW 22:43:39 14° NW 22:43:39 14° NW visible
22 Sep 4.2 20:55:20 10° NNE 20:57:38 24° NE 20:57:38 24° NE visible
22 Sep 5.6 22:31:37 10° NW 22:32:55 16° NW 22:32:55 16° NW visible
23 Sep 4.1 20:44:21 10° NNE 20:46:55 25° NE 20:46:55 25° NE visible
23 Sep 5.4 22:20:27 10° NW 22:22:12 19° WNW 22:22:12 19° WNW visible
24 Sep 4.0 20:33:21 10° NNE 20:36:14 24° ENE 20:36:14 24° ENE visible
24 Sep 5.2 22:09:18 10° NW 22:11:32 22° WNW 22:11:32 22° WNW visible
25 Sep 4.0 20:22:21 10° NNE 20:25:32 23° ENE 20:25:36 23° ENE visible
25 Sep 4.9 21:58:08 10° NNW 22:00:53 25° WNW 22:00:53 25° WNW visible
26 Sep 4.1 20:11:22 10° NNE 20:14:26 21° ENE 20:15:00 20° E visible
26 Sep 4.6 21:46:58 10° NNW 21:50:18 29° W 21:50:18 29° W visible
27 Sep 4.2 20:00:22 10° NNE 20:03:18 20° ENE 20:04:29 17° E visible
27 Sep 4.4 21:35:49 10° NNW 21:39:20 31° W 21:39:47 30° WSW visible
28 Sep 4.3 19:49:23 10° NNE 19:52:10 18° ENE 19:54:01 14° ESE visible
28 Sep 4.3 21:24:39 10° NNW 21:28:15 34° W 21:29:20 29° SW visible
